Regional Weather Roundup
Issued by NWS Cleveland, OH

Home | Current Version | Previous Version | Graphics & Text | Print | Product List | Glossary On
Versions: 1 2 3 4 5 6 7 8 9 10 11 12 13 14 15 16 17 18 19 20 21 22 23 24 25 26 27 28 29 30 31 32 33 34 35 36 37 38 39 40 41 42 43 44 45 46 47 48 49 50
000
ASUS41 KCLE 210402
RWRCLE
OHIO REGIONAL WEATHER ROUNDUP
NATIONAL WEATHER SERVICE CLEVELAND, OH
1100 PM EST THU NOV 20 2014

NOTE: "FAIR" INDICATES FEW OR NO CLOUDS BELOW 12,000 FEET WITH NO
SIGNIFICANT WEATHER AND/OR OBSTRUCTIONS TO VISIBILITY.

OHZ001>008-015>018-024>027-034-035-043-044-210500-
   NORTHWEST OHIO

CITY           SKY/WX    TMP DP  RH WIND       PRES   REMARKS
DEFIANCE       CLEAR     14   6  70 SW3       30.18R
FINDLAY        PTCLDY    19  10  68 SW8       30.17R WCI   9
TOLEDO EXPRESS MOCLDY    18  10  71 W5        30.17R WCI  11
TOLEDO EXEC    MOCLDY    21  12  68 W9        30.18R WCI  11
LIMA           CLEAR     21  11  65 W10       30.17R WCI  10
$$

OHZ009>014-019>023-028>033-038-089-210500-
   NORTHEAST OHIO

CITY           SKY/WX    TMP DP  RH WIND       PRES   REMARKS
CLE-HOPKINS    LGT SNOW  22  18  85 W10       30.16R VSB 3/4 WCI  11
CLE-LAKEFRONT  LGT SNOW  27  17  66 NW24G35   30.12R WCI  12
CUY CO. ARPT   LGT SNOW  27  14  59 W21G29    30.11R WCI  13
LORAIN-ELYRIA  MOCLDY    22  12  65 W12       30.15R WCI  10
ASHTABULA      FLURRIES  23  12  62 W21G29    30.08R WCI   8
AKRON-CANTON   PTCLDY    22  14  71 W13G20    30.12R WCI  10
WOOSTER        FLURRIES  21  14  74 W9        30.14R WCI  11
MANSFIELD      CLOUDY    23  14  68 W8        30.13R WCI  14
YOUNGSTOWN     CLOUDY    20  15  81 W12       30.08R WCI   8
$$

OHZ042-051>053-060>062-070>072-077>081-210500-
  SOUTHWEST OHIO

CITY           SKY/WX    TMP DP  RH WIND       PRES   REMARKS
CINC-COVINGTON CLEAR     23  12  62 W5        30.25R WCI  17
CINC-LUNKEN    CLEAR     27  15  61 VRB5      30.28R WCI  22
HAMILTON       CLEAR     15  12  88 CALM      30.27R
DAYTON         MOCLDY    19  12  74 W8        30.22R WCI   9
WRIGHT-PAT AFB PTCLDY    24  14  66 W10       30.22R WCI  13
DAYTON GENERAL CLOUDY    25  14  63 W9        30.22R WCI  15
WILMINGTON     CLEAR     20  12  71 W7        30.21R WCI  11
$$

OHZ036-037-039>041-045>050-054>059-063>069-073>076-082>088-210500-
  CENTRAL AND SOUTHEAST OHIO

CITY           SKY/WX    TMP DP  RH WIND       PRES   REMARKS
COLUMBUS       PTCLDY    25  12  58 W8        30.20R WCI  16
OSU AIRPORT    MOCLDY    23  13  65 W10       30.19R WCI  12
BOLTON FIELD   MOCLDY    22  13  69 MISG      30.21R
RICKENBACK AFB NOT AVBL
NEWARK         CLOUDY    24  12  60 W10       30.19R WCI  14
MARION         CLOUDY    23  14  68 W9        30.17R WCI  13
LANCASTER      PTCLDY    22  12  65 W9        30.21R WCI  12
ZANESVILLE     CLEAR     22  12  65 W8        30.18R WCI  12
NEW PHILLY     PTCLDY    25  12  58 W9        30.16R WCI  15
$$


USA.gov is the U.S. government's official web portal to all federal, state and local government web resources and services.